Regional Weather Roundup
Issued by NWS

Home | Current Version | Previous Version | Text Only | Print | Product List | Glossary Off
Versions: 1 2 3 4 5 6 7 8 9 10 11 12 13 14 15 16 17 18 19 20 21 22 23 24 25 26 27 28 29 30 31 32 33 34 35 36 37 38 39 40 41 42 43 44 45 46 47 48

000
ASUS45 KCYS 021610
RWRWY

WYOMING REGIONAL WEATHER ROUNDUP
NATIONAL WEATHER SERVICE CHEYENNE WY
1000 AM MDT WED SEP 02 2015

NOTE:  "FAIR" INDICATES FEW OR NO CLOUDS BELOW 12,000 FEET
WITH NO SIGNIFICANT WEATHER AND/OR OBSTRUCTIONS TO VISIBILITY.

WYZ001-021700-
YELLOWSTONE NATIONAL PARK

CITY           SKY/WX    TMP DP  RH WIND       PRES   REMARKS
LK YELLOWSTONE   N/A     63  35  35 VRB5      30.16F
W YELLOWSTONE  NOT AVBL

$$
WYZ002>013-054>058-071-098>099-021700-
NORTHERN WYOMING

CITY           SKY/WX    TMP DP  RH WIND       PRES   REMARKS
JACKSON        SUNNY     70  37  30 CALM      30.10F
CODY           FAIR      79  37  22 SW7       29.93S
GREYBULL       FAIR      83  41  22 SE20      29.85F
WORLAND        FAIR      82  41  23 VRB3      29.89F
SHERIDAN       FAIR      80  44  27 VRB5      29.85S
BUFFALO        FAIR      87  37  17 W13       29.95F
GILLETTE       FAIR      84  44  24 SW16      29.91S
HULETT         FAIR      82  45  26 SW12      29.93S
NEWCASTLE      FAIR      79  39  24 SE3       29.96S

$$
WYZ014>020-022>026-101>103-021700-
CENTRAL WYOMING

CITY           SKY/WX    TMP DP  RH WIND       PRES   REMARKS
BIG PINEY      FAIR      68  40  35 VRB3      30.18F
PINEDALE       FAIR      66  36  32 E5        30.19S
DUBOIS         FAIR      70  30  23 NW14G24   30.13F
LANDER         FAIR      82  34  17 SW17G28   30.02S
RIVERTON       FAIR      75  38  26 VRB6      30.03F
CASPER         FAIR      79  40  24 SW24G30   30.05F
DOUGLAS        FAIR      85  39  19 W12G20    30.02F

$$
WYZ021-027>030-104>119-021700-
SOUTHERN WYOMING

CITY           SKY/WX    TMP DP  RH WIND       PRES   REMARKS
EVANSTON       FAIR      72  40  31 S22G30    30.20F
KEMMERER       FAIR      70  34  26 SW22G32   30.20S
FORT BRIDGER   SUNNY     73  37  27 SW23G36   30.22S
ROCK SPRINGS   FAIR      69  43  38 S6        30.20S
DIXON          FAIR      68  46  45 SE6       30.25F
RAWLINS        FAIR      75  39  27 SW15      30.21F
SARATOGA       FAIR      70  43  37 SE8       30.25F
LARAMIE        FAIR      71  42  35 W13G21    30.23F
CHEYENNE       FAIR      79  41  25 W21G26    30.14S
TORRINGTON     FAIR      78  45  30 VRB3      29.98F
PINE BLUFFS    FAIR      82  37  20 NW12      30.08S

$$


USA.gov is the U.S. government's official web portal to all federal, state and local government web resources and services.